Find Starlink 6095

NORAD ID: 56101 Int'l Des: 2023-046 Owner: SPXS Country: US Constellation: starlink operational
LEOCIRCULAR

Live Position

Loading 3D Globe...

About Starlink 6095

Description loading...

Upcoming Passes

Passes for default location (London). Set your location on the main map for personalized predictions.

Altitude History

Loading altitude history...

Two-Line Element Set

1 56101U 23046J 26121.31649264 .00001006 00000-0 46083-4 0 9997
2 56101 43.0020 224.0393 0001734 285.3059 74.7601 15.27574001170087
Epoch: May 1, 2026 • Age: 30 hours

Current Status

Altitude 486.7 km
Velocity 7.63 km/s
Sub-Earth Point 39.89°N, 95.03°W
Launch Date Mar 29, 2023
Age 3 years
Type internet

Technical Details

Classification Payload
Mass 305.00 kg
Dry Mass 290.00 kg
Total Mass 305.00 kg
Length 0.20 m
Diameter 2.80 m
Span 9.00 m
Shape Box + pan
Manufacturer SPXS
Bus Type Starlink
Phase Status In Orbit
Owner/State SPXS/US

Most Searched